This is the latest recevied weather packets stored in our database for station/object VE6EN. If no packets are shown the sender has not sent any weather packets the latest 10 day(s).
| Time | Temp. | Humidity | Pressure | Rain* | Wind** | Luminosity | Snow |
|---|---|---|---|---|---|---|---|
| 1778009399 | 8.89° C | 36% | 1018 hPa | 0 mm | - | - | - |
| 1778008799 | 8.89° C | 36% | 1018 hPa | 0 mm | - | - | - |
| 1778008199 | 8.89° C | 37% | 1018 hPa | 0 mm | - | - | - |
| 1778007598 | 8.89° C | 38% | 1018 hPa | 0 mm | - | - | - |
| 1778006999 | 8.89° C | 37% | 1018.2 hPa | 0 mm | - | - | - |
| 1778006399 | 8.89° C | 40% | 1018.2 hPa | 0 mm | - | - | - |
| 1778005799 | 8.89° C | 40% | 1018.3 hPa | 0 mm | - | - | - |
| 1778005199 | 8.33° C | 41% | 1018.2 hPa | 0 mm | - | - | - |
| 1778004600 | 7.78° C | 44% | 1018.3 hPa | 0 mm | - | - | - |
| 1778004000 | 7.22° C | 45% | 1018.2 hPa | 0 mm | - | - | - |
| 1778003398 | 7.22° C | 44% | 1018.3 hPa | 0 mm | - | - | - |
| 1778002800 | 7.22° C | 45% | 1018.4 hPa | 0 mm | - | - | - |
| 1778002199 | 6.67° C | 50% | 1018.3 hPa | 0 mm | - | - | - |
| 1778001599 | 5.56° C | 51% | 1018.4 hPa | 0 mm | - | - | - |
| 1778001000 | 5.56° C | 50% | 1018.4 hPa | 0 mm | - | - | - |
| 1778000399 | 5° C | 51% | 1018.3 hPa | 0 mm | - | - | - |
| 1777999804 | 5° C | 53% | 1018.4 hPa | 0 mm | - | - | - |
| 1777999199 | 4.44° C | 56% | 1018.4 hPa | 0 mm | - | - | - |
| 1777998599 | 4.44° C | 58% | 1018.3 hPa | 0 mm | - | - | - |
| 1777997999 | 4.44° C | 56% | 1018.3 hPa | 0 mm | - | - | - |
| 1777997400 | 4.44° C | 60% | 1018.3 hPa | 0 mm | - | - | - |
| 1777996799 | 3.33° C | 66% | 1018.4 hPa | 0 mm | - | - | - |
| 1777996200 | 2.78° C | 64% | 1018.4 hPa | 0 mm | - | - | - |
| 1777995600 | 2.78° C | 65% | 1018.5 hPa | 0 mm | - | - | - |
| 1777994999 | 2.78° C | 68% | 1018.4 hPa | 0 mm | - | - | - |
* Rain latest hour (hover to see other rain measurements)
** Current wind speed in m/s (hover to see current wind gust speed)